Location: Nianha
(10.8000°N, 4.6333°W)
Time: 12:54:38
(UTC+00:00)

Cosmos 1656 - Pass Details

Date: 14 November 2019
Orbit: 799 x 849 km, 71.1° (Epoch: 19 January)

Event Time Altitude Azimuth Distance (km) Brightness Sun altitude
Exits shadow 05:24:41 - 332° (NNW) 2,748 6.0 -12.3°
Reaches altitude 10° 05:25:42 10° 329° (NNW) 2,371 5.6 -12.1°
Maximum altitude 05:30:53 49° 256° (WSW) 1,034 3.8 -10.9°
Drops below altitude 10° 05:36:09 10° 182° (S) 2,396 6.3 -9.6°
Sets 05:38:40 0° 176° (S) 3,336 7.1 -9.0°
